Regional Weather Roundup
Issued by NWS

Home | Current Version | Previous Version | Graphics & Text | Print | Product List | Glossary On
Versions: 1 2 3 4 5 6 7 8 9 10 11 12 13 14 15 16 17 18 19 20 21 22 23 24 25 26 27 28 29 30 31 32 33 34 35 36 37 38 39 40 41 42 43 44 45 46 47 48 49 50
000
ASUS45 KBOU 021210
RWRCO

WEATHER ROUNDUP FOR COLORADO
NATIONAL WEATHER SERVICE DENVER/BOULDER CO
600 AM MDT THU JUL 02 2015

NOTE: "FAIR" INDICATES FEW OR NO CLOUDS BELOW 12000 FEET WITH NO
SIGNIFICANT WEATHER AND/OR OBSTRUCTIONS TO VISIBILITY.

COZ001>005-013-030-031-021300-
...NORTHWEST COLORADO...

CITY           SKY/WX    TMP DP  RH WIND       PRES   REMARKS
CRAIG          MOCLDY    51  46  83 CALM      30.21R
HAYDEN         MOCLDY    57  45  62 E9        30.22R
MEEKER         MOCLDY    55  49  80 CALM      30.21R
MOUNT WERNER   NOT AVBL
STEAMBOAT SPGS MOCLDY    51  46  86 NW6       30.26R
WALDEN         PTCLDY    50  45  81 SW6       30.36S
$$

COZ006>008-011-021300-
...WEST CENTRAL VALLEYS...

CITY           SKY/WX    TMP DP  RH WIND       PRES   REMARKS
GRAND JUNCTION CLOUDY    74  50  42 E10       30.05R
MONTROSE       CLOUDY    73  50  44 E7        30.18R
EAGLE          MOCLDY    55  48  76 CALM      30.26S
RIFLE          CLOUDY    65  49  56 CALM      30.14R
DELTA          CLOUDY    72  53  51 NE7       30.12R
NUCLA          CLOUDY    68  54  60 E6        30.25R
$$

COZ017>023-064>068-021300-
...SOUTHWEST COLORADO...

CITY           SKY/WX    TMP DP  RH WIND       PRES   REMARKS
DURANGO        CLOUDY    63  53  70 NW3       30.27R
CORTEZ         PTCLDY    68  55  63 E12       30.22S
PAGOSA SPRINGS CLOUDY    57  55  92 CALM      30.35F
TELLURIDE      RAIN      56  52  84 E12       30.47R
WOLF CREEK PAS NOT AVBL
$$

COZ009-010-012-014-032>034-037-058>063-021300-
...CENTRAL COLORADO...

CITY           SKY/WX    TMP DP  RH WIND       PRES   REMARKS
ASPEN          CLOUDY    54  46  74 S3        30.30S
BUENA VISTA    MOCLDY    52  49  89 CALM      30.35S
COPPER MTN     CLOUDY    54  41  62 W10       30.63F
BERTHOUD PASS  FAIR      43  32  65 N5        30.68R
COTTONWOOD PAS NOT AVBL
GUNNISON       CLOUDY    55  45  67 N3        30.36R
KREMMLING      PTCLDY    52  45  76 CALM      30.32F
LEADVILLE      CLOUDY    44  44 100 CALM      30.46F
MONARCH PASS   CLOUDY    50  41  71 W6        30.73R
SALIDA         MOCLDY    58  52  80 W6        30.39S
SUNLIGHT       CLOUDY    59  43  55 W3        30.55S
WILKERSON PASS MOCLDY    52  39  62 N13G18    30.59S
$$

COZ069>075-021300-
...SAN LUIS VALLEY/SANGRE DE CRISTO MOUNTAINS...

CITY           SKY/WX    TMP DP  RH WIND       PRES   REMARKS
ALAMOSA        CLOUDY    56  54  93 SW5       30.33R
LA VETA PASS   CLOUDY    46  45  93 MISG      30.47S
SAGUACHE       CLOUDY    52  50  93 NW6       30.36R
$$

COZ035-036-038>040-021300-
...NORTHERN COLORADO FRONT RANGE...

CITY           SKY/WX    TMP DP  RH WIND       PRES   REMARKS
DENVER INTL AP MOCLDY    58  53  84 NE20      30.25R
DMNS CITY PARK   N/A     62  57  84 NE15G24   30.26R
AURORA         MOCLDY    58  58  99 NW16      30.27R
FRONT RANGE AP MOCLDY    59  54  82 MISG      30.25R
ERIE MUNI ARPT CLOUDY    64  57  79 N15       30.28R
BOULDER MUN AP CLOUDY    63  57  82 N24G33    30.28R
CENTENNIAL     CLOUDY    60  57  89 N22       30.27R
BROOMFIELD     LGT RAIN  61  55  82 N24G33    30.28R
FORT COLLINS   CLOUDY    59  54  82 N8        30.29R
LONGMONT       LGT RAIN  64  58  80 N17       30.31R
$$

COZ041-046-047-076>085-087-088-021300-
...PIKES PEAK/PALMER DIVIDE AND SOUTHERN FOOTHILLS...

CITY           SKY/WX    TMP DP  RH WIND       PRES   REMARKS
COLO. SPRINGS  MOCLDY    58  54  86 NE6       30.18F
A. F. ACADEMY  MOCLDY    54  54 100 N14       30.22R
ELLICOTT       MOCLDY   N/A N/A N/A NE5       30.17S
FALCON         MOCLDY    56  55  96 N3        30.23S
FORT CARSON    MOCLDY    57  57  99 N8        30.15F
LIMON          MOCLDY    58  55  90 NE33G45   30.20R
MONUMENT HILL  MOCLDY    55  52  88 MISG      30.28R
TRINIDAD       CLOUDY    60  56  86 W6        30.15F
$$

COZ042>045-048>051-090-091-021300-
...NORTHEAST COLORADO...

CITY           SKY/WX    TMP DP  RH WIND       PRES   REMARKS
GREELEY ARPT   MOCLDY    59  54  82 NW12      30.26R
AKRON          PTCLDY    59  52  77 NE17G25   30.18F
BURLINGTON     MOCLDY    62  55  77 NE23G33   30.14R
WRAY           CLOUDY    62  55  75 N10G25    30.12S
STERLING       MOCLDY    59  55  88 E9          N/A
HOLYOKE        CLOUDY    63  55  77 N9        30.14S
FORT MORGAN    PTCLDY    58  53  81 NE15G24   30.18F
$$

COZ086-089-092>099-021300-
...SOUTHEAST COLORADO...

CITY           SKY/WX    TMP DP  RH WIND       PRES   REMARKS
PUEBLO         MOCLDY    62  59  90 CALM      30.08F
LA JUNTA       MOCLDY    64  62  93 W7        30.05F
LAMAR          PTCLDY    65  64  97 W5        30.02F FOG
SPRINGFIELD      N/A     64  61  90 NW9       30.04S
$$


USA.gov is the U.S. government's official web portal to all federal, state and local government web resources and services.